Vitoria, Spain

10:32 AM CEST on May 22, 2018 (GMT +0200)
Foronda

Weather History for LEVT - October, 2013

Change the Weather History Date:

Monday, October 21, 2013

  Actual Average Record
Temperature  
Mean Temperature 57 °F -  
Max Temperature 68 °F 57 °F 82 °F (2014)
Min Temperature 46 °F 40 °F 28 °F (2016)
Degree Days  
Heating Degree Days 8    
Growing Degree Days 7 (Base 50)    
Moisture  
Dew Point 46 °F    
Average Humidity 66    
Maximum Humidity 87    
Minimum Humidity 46    
Precipitation  
Precipitation 0.00 in - - ()
Sea Level Pressure  
Sea Level Pressure 29.97 in    
Wind  
Wind Speed 4 mph ()    
Max Wind Speed 18 mph    
Max Gust Speed 30 mph    
Visibility 6.2 miles    
Events      
Averages and records for this station are not official NWS values.
T = Trace of Precipitation, MM = Missing Value Source: Averaged Metar Reports

Daily Weather History Graph

Daily Weather History Graph

Search for Another Location

Airport or City:

Astronomy

Oct. 21, 2013 Rise Set
Actual Time 8:31 AM CEST 7:18 PM CEST
Civil Twilight 8:02 AM CEST 7:47 PM CEST
Nautical Twilight 7:29 AM CEST 8:20 PM CEST
Astronomical Twilight 6:56 AM CEST 8:53 PM CEST
Moon 8:57 PM CEST (10/21) 10:56 AM CEST (10/21)
Length of Visible Light 11h 44m
Length of Day
10h 47m
Waning Gibbous, 94% of the Moon is Illuminated
Oct 21
Waning Gibbous
Oct 27
Last Quarter
Nov 3
New
Nov 10
First Quarter
Nov 17
Full

Hourly Weather History & Observations

Time (CEST) Temp. Dew Point Humidity Pressure Visibility Wind Dir Wind Speed Gust Speed Precip Events Conditions
12:00 AM 50.0 °F 44.6 °F 82% 30.09 in 6.2 mi Calm Calm - N/A   Partly Cloudy
12:30 AM 48.2 °F 44.6 °F 87% 30.06 in 6.2 mi Calm Calm - N/A   Partly Cloudy
1:00 AM 46.4 °F 42.8 °F 87% 30.06 in 6.2 mi Variable 1.2 mph - N/A   Scattered Clouds
1:30 AM 50.0 °F 44.6 °F 82% 30.06 in 6.2 mi Calm Calm - N/A   Scattered Clouds
2:00 AM 48.2 °F 44.6 °F 87% 30.06 in 6.2 mi Calm Calm - N/A   Mostly Cloudy
2:30 AM 48.2 °F 44.6 °F 87% 30.06 in 6.2 mi Calm Calm - N/A   Mostly Cloudy
3:00 AM 50.0 °F 44.6 °F 82% 30.06 in 6.2 mi WSW 1.2 mph - N/A   Scattered Clouds
3:30 AM 48.2 °F 44.6 °F 87% 30.04 in 6.2 mi Variable 1.2 mph - N/A   Scattered Clouds
4:00 AM 50.0 °F 44.6 °F 82% 30.04 in 6.2 mi SW 6.9 mph - N/A   Scattered Clouds
4:30 AM 50.0 °F 46.4 °F 87% 30.04 in 6.2 mi SW 10.4 mph - N/A   Partly Cloudy
5:00 AM 51.8 °F 44.6 °F 76% 30.01 in 6.2 mi SW 9.2 mph - N/A   Partly Cloudy
5:30 AM 51.8 °F 46.4 °F 82% 30.01 in 6.2 mi WSW 5.8 mph - N/A   Partly Cloudy
6:00 AM 50.0 °F 44.6 °F 82% 30.01 in 6.2 mi SSW 2.3 mph - N/A   Partly Cloudy
6:30 AM 51.8 °F 46.4 °F 82% 30.01 in 6.2 mi SSW 8.1 mph - N/A   Partly Cloudy
7:00 AM 55.4 °F 46.4 °F 72% 30.01 in 6.2 mi SW 8.1 mph - N/A   Partly Cloudy
7:30 AM 53.6 °F 46.4 °F 77% 30.01 in 6.2 mi SW 4.6 mph - N/A   Partly Cloudy
8:00 AM 53.6 °F 46.4 °F 77% 30.01 in 6.2 mi Calm Calm - N/A   Partly Cloudy
8:30 AM 55.4 °F 46.4 °F 72% 30.01 in 6.2 mi SSW 4.6 mph - N/A   Partly Cloudy
9:00 AM 53.6 °F 46.4 °F 77% 30.01 in 6.2 mi SSW 6.9 mph - N/A   Partly Cloudy
9:30 AM 53.6 °F 46.4 °F 77% 30.01 in 6.2 mi SW 6.9 mph - N/A   Partly Cloudy
10:00 AM 55.4 °F 46.4 °F 72% 30.04 in 6.2 mi SSW 2.3 mph - N/A   Partly Cloudy
10:30 AM 57.2 °F 48.2 °F 72% 30.01 in 6.2 mi Variable 2.3 mph - N/A   Partly Cloudy
11:00 AM 57.2 °F 48.2 °F 72% 30.04 in 6.2 mi South 3.5 mph - N/A   Partly Cloudy
11:30 AM 59.0 °F 46.4 °F 63% 30.01 in 6.2 mi SW 2.3 mph - N/A   Partly Cloudy
12:00 PM 59.0 °F 48.2 °F 67% 30.01 in 6.2 mi West 2.3 mph - N/A   Partly Cloudy
12:30 PM 59.0 °F 48.2 °F 67% 30.01 in 6.2 mi Variable 1.2 mph - N/A   Partly Cloudy
1:00 PM 60.8 °F 48.2 °F 63% 30.01 in 6.2 mi Variable 1.2 mph - N/A   Partly Cloudy
1:30 PM 62.6 °F 48.2 °F 59% 30.01 in 6.2 mi Variable 1.2 mph - N/A   Partly Cloudy
2:00 PM 60.8 °F 50.0 °F 68% 29.98 in 6.2 mi WNW 4.6 mph - N/A   Partly Cloudy
2:30 PM 62.6 °F 48.2 °F 59% 29.95 in 6.2 mi SW 6.9 mph - N/A   Partly Cloudy
3:00 PM 64.4 °F 48.2 °F 56% 29.95 in 6.2 mi WSW 6.9 mph - N/A   Partly Cloudy
3:30 PM 64.4 °F 48.2 °F 56% 29.92 in 6.2 mi Variable 2.3 mph - N/A   Partly Cloudy
4:00 PM 66.2 °F 48.2 °F 52% 29.92 in 6.2 mi South 6.9 mph - N/A   Partly Cloudy
4:30 PM 66.2 °F 46.4 °F 49% 29.92 in 6.2 mi SSE 12.7 mph - N/A   Partly Cloudy
5:00 PM 66.2 °F 46.4 °F 49% 29.89 in 6.2 mi SSE 13.8 mph - N/A   Partly Cloudy
5:30 PM 68.0 °F 46.4 °F 46% 29.89 in 6.2 mi SSE 10.4 mph - N/A   Partly Cloudy
6:00 PM 68.0 °F 48.2 °F 49% 29.89 in 6.2 mi SSE 6.9 mph - N/A   Scattered Clouds
6:30 PM 68.0 °F 48.2 °F 49% 29.86 in 6.2 mi SSE 6.9 mph - N/A   Scattered Clouds
7:00 PM 68.0 °F 48.2 °F 49% 29.86 in 6.2 mi SSE 9.2 mph - N/A   Scattered Clouds
7:30 PM 68.0 °F 46.4 °F 46% 29.86 in 6.2 mi SSE 6.9 mph - N/A   Scattered Clouds
8:00 PM 68.0 °F 46.4 °F 46% 29.86 in 6.2 mi South 12.7 mph 24.2 mph N/A   Scattered Clouds
8:30 PM 68.0 °F 46.4 °F 46% 29.86 in 6.2 mi South 18.4 mph 29.9 mph N/A   Scattered Clouds
9:00 PM 66.2 °F 46.4 °F 49% 29.86 in 6.2 mi South 15.0 mph - N/A   Scattered Clouds
9:30 PM 66.2 °F 46.4 °F 49% 29.86 in 6.2 mi SSE 11.5 mph - N/A   Scattered Clouds
10:00 PM 66.2 °F 46.4 °F 49% 29.86 in 6.2 mi SSE 8.1 mph - N/A   Partly Cloudy
10:30 PM 66.2 °F 44.6 °F 46% 29.86 in 6.2 mi South 10.4 mph - N/A   Partly Cloudy
11:00 PM 68.0 °F 46.4 °F 46% 29.86 in 6.2 mi South 12.7 mph 25.3 mph N/A   Partly Cloudy
11:30 PM 68.0 °F 46.4 °F 46% 29.86 in 6.2 mi South 13.8 mph 26.5 mph N/A   Partly Cloudy